TimeCDT,TemperatureF,Dew PointF,Humidity,Sea Level PressureIn,VisibilityMPH,Wind Direction,Wind SpeedMPH,Gust SpeedMPH,PrecipitationIn,Events,Conditions,WindDirDegrees,DateUTC
12:53 AM,55.9,48.0,75,29.99,10.0,NW,3.5,-,N/A,,Clear,320,2013-09-21 05:53:00
1:53 AM,55.9,48.0,75,29.99,10.0,NW,3.5,-,N/A,,Clear,320,2013-09-21 06:53:00
2:53 AM,55.0,48.0,77,29.98,10.0,North,4.6,-,N/A,,Clear,350,2013-09-21 07:53:00
3:53 AM,55.0,46.9,74,29.98,10.0,North,3.5,-,N/A,,Clear,350,2013-09-21 08:53:00
4:53 AM,52.0,48.0,86,30.00,10.0,NNW,4.6,-,N/A,,Clear,330,2013-09-21 09:53:00
5:53 AM,52.0,48.0,86,30.01,10.0,Calm,Calm,-,N/A,,Clear,0,2013-09-21 10:53:00
6:53 AM,50.0,46.9,89,30.02,10.0,NNE,4.6,-,N/A,,Clear,30,2013-09-21 11:53:00
7:53 AM,53.1,46.9,80,30.03,10.0,Calm,Calm,-,N/A,,Clear,0,2013-09-21 12:53:00
8:53 AM,57.9,48.0,70,30.04,10.0,ENE,4.6,-,N/A,,Clear,60,2013-09-21 13:53:00
9:53 AM,62.1,48.0,60,30.04,10.0,Calm,Calm,-,N/A,,Clear,0,2013-09-21 14:53:00
10:53 AM,63.0,48.0,58,30.04,10.0,Variable,4.6,-,N/A,,Clear,0,2013-09-21 15:53:00
11:53 AM,66.0,45.0,47,30.04,10.0,Calm,Calm,-,N/A,,Clear,0,2013-09-21 16:53:00
12:53 PM,70.0,45.0,41,30.02,10.0,Calm,Calm,-,N/A,,Clear,0,2013-09-21 17:53:00
1:53 PM,71.1,44.1,38,29.99,10.0,Calm,Calm,-,N/A,,Clear,0,2013-09-21 18:53:00
2:53 PM,71.1,45.0,39,29.97,10.0,Calm,Calm,-,N/A,,Clear,0,2013-09-21 19:53:00
3:53 PM,72.0,46.0,40,29.95,10.0,Variable,3.5,-,N/A,,Clear,0,2013-09-21 20:53:00
4:53 PM,73.0,46.0,38,29.94,10.0,South,3.5,-,N/A,,Clear,190,2013-09-21 21:53:00
5:53 PM,72.0,46.9,41,29.93,10.0,South,3.5,-,N/A,,Clear,170,2013-09-21 22:53:00
6:53 PM,69.1,48.9,49,29.91,10.0,South,4.6,-,N/A,,Clear,180,2013-09-21 23:53:00
7:53 PM,64.9,51.1,61,29.92,10.0,SSE,3.5,-,N/A,,Clear,160,2013-09-22 00:53:00
8:53 PM,62.1,51.1,67,29.93,10.0,SSE,3.5,-,N/A,,Clear,150,2013-09-22 01:53:00
9:53 PM,60.1,48.9,67,29.93,10.0,Calm,Calm,-,N/A,,Clear,0,2013-09-22 02:53:00
10:53 PM,57.9,52.0,81,29.94,10.0,SSE,3.5,-,N/A,,Clear,160,2013-09-22 03:53:00
11:53 PM,57.0,50.0,77,29.94,10.0,SSE,3.5,-,N/A,,Clear,160,2013-09-22 04:53:00